Location: Csohesd
(46.2500°N, 22.6167°E)
Time: 05:07:43
(UTC+00:00)

Cosmos 2263 Rocket - Pass Details

Date: 21 October 2021
Orbit: 825 x 847 km, 71.0° (Epoch: 04 December)

Event Time Altitude Azimuth Distance (km) Brightness Sun altitude
Rises 15:56:02 0° 336° (NNW) 3,375 5.5 -4.8°
Reaches altitude 10° 15:58:34 10° 342° (NNW) 2,437 4.7 -5.2°
Maximum altitude 16:03:59 50° 57° (ENE) 1,048 2.4 -6.1°
Drops below altitude 10° 16:09:22 10° 133° (SE) 2,423 4.2 -7.1°
Sets 16:11:52 0° 139° (SE) 3,354 5.0 -7.5°
